Dewpoint
15 16 18 17 16 17 18 17 14 10 11 11 14 16 16 20 24 27 31 30 27 27 27 26 22 21 23 25 26 27 26 24 23 25 25 24 20 18 17 18 19 19 19 18
16 18 19 18 20 20 20 21 21 20 20 21 22 22 23 23 25 26 31 30 27 26 27 27 26 25 25 25 25 25 24 25 22 20 19 18 16 16 17 17 18 18 18 18
16 20 20 17 20 21 21 23 22 19 20 24 24 24 24 25 28 30 34 31 27 26 26 26 27 28 27 26 27 24 23 23 21 19 18 16 16 17 17 17 18 19 19 18
19 20 13 14 19 20 20 21 23 23 23 24 24 25 31 35 35 34 35 32 29 26 26 25 26 25 27 27 27 26 23 21 20 19 17 16 16 17 18 18 18 17 17 18
19 17 16 17 15 16 16 17 20 20 22 24 30 34 33 37 37 35 36 34 31 28 27 26 23 23 25 25 25 25 23 21 20 18 16 16 17 17 18 17 16 16 16 17
21 17 13 15 22 28 30 19 23 27 28 31 32 27 29 35 35 34 34 32 30 28 26 25 23 24 24 23 22 22 22 21 20 19 18 18 18 19 19 18 15 14 14 15
22 20 21 21 29 28 19 17 26 31 32 33 31 31 31 33 32 32 31 29 28 25 23 23 24 24 23 22 20 22 23 22 21 21 20 20 21 21 21 18 12 11 11 11
23 20 16 29 29 25 28 34 34 32 33 34 33 33 32 31 30 29 28 27 24 23 22 22 23 23 22 21 22 23 22 22 21 21 21 22 21 23 22 13 10 9 10 11
23 24 27 30 29 31 33 35 35 34 32 34 33 32 30 29 27 26 26 22 20 21 20 21 21 21 20 21 22 22 22 21 21 22 22 22 22 23 21 16 15 12 11 10
30 29 32 32 32 35 37 36 37 37 34 34 33 32 29 26 23 22 20 19 19 20 20 20 19 18 19 21 22 21 21 21 21 21 22 22 22 22 22 20 18 19 15 9
29 28 28 32 35 38 38 38 39 36 35 34 33 31 28 25 22 20 19 18 19 20 20 20 20 19 21 22 21 20 20 20 21 22 21 20 20 20 20 20 20 19 14 7
20 21 24 31 32 35 37 38 40 36 34 34 32 30 27 25 23 21 20 19 18 19 20 20 21 21 21 22 21 20 19 19 21 21 20 18 17 16 19 19 20 19 14 6
21 24 32 35 35 37 35 36 37 35 34 34 32 30 27 26 24 22 21 20 19 18 20 21 21 21 22 22 21 20 18 19 20 20 19 16 12 10 7 16 18 16 13 11
28 32 33 34 34 31 30 34 37 35 34 34 33 30 28 25 24 22 21 21 21 20 19 20 21 21 22 23 21 20 20 20 20 19 19 18 14 10 10 13 13 13 15 16
26 30 29 30 29 29 32 33 33 33 33 32 32 31 28 25 24 23 21 20 21 20 20 19 20 20 23 23 21 20 20 19 19 19 18 17 16 13 11 12 12 11 11 13
26 29 30 32 33 33 32 31 31 31 32 31 31 30 28 25 24 22 21 20 19 19 19 19 19 20 22 22 21 21 21 20 19 18 17 17 16 15 13 12 12 12 12 14
28 29 30 31 31 31 30 30 30 30 31 31 30 29 27 24 22 20 20 20 19 18 19 18 17 19 21 21 21 20 19 18 17 17 16 16 15 14 13 12 12 13 13 12
31 32 32 33 32 33 34 34 32 30 29 30 28 26 24 23 22 19 18 18 18 18 18 17 18 19 19 20 20 19 18 17 17 16 16 15 15 15 15 14 14 14 13 14
33 33 34 35 35 36 37 37 35 30 28 27 25 24 23 21 19 17 17 16 16 15 16 17 20 19 18 19 19 19 18 17 17 17 16 16 15 15 14 14 14 14 15 13
32 33 33 33 35 36 35 32 29 27 25 23 21 19 17 16 15 15 15 14 15 16 16 19 19 18 18 20 20 19 18 18 18 17 16 16 15 15 15 16 16 14 12 10
30 30 29 30 28 28 29 28 26 24 22 21 19 17 15 14 14 14 13 13 17 16 17 17 18 18 19 19 19 18 17 17 17 17 17 16 16 16 15 14 12 10 9 7
27 26 26 25 25 24 24 25 23 21 21 20 18 16 15 13 14 15 16 15 17 17 18 18 18 18 18 19 20 19 17 17 17 16 15 16 15 13 11 10 9 7 6 4
26 26 25 24 24 23 22 22 21 21 20 19 18 16 16 16 17 16 15 19 18 18 19 19 18 17 17 17 17 19 18 17 16 15 15 13 11 9 8 7 6 4 2 0
27 26 25 24 23 24 23 21 21 20 19 19 17 18 18 18 20 21 20 19 18 18 18 16 15 14 15 15 16 17 16 14 13 12 10 9 8 7 6 4 2 -2 -4 -5
26 25 24 24 24 23 23 22 22 22 22 21 21 21 21 21 19 20 19 18 18 17 15 13 13 15 15 14 14 13 13 12 11 10 8 7 5 3 -0 -2 -4 -5 -7 -7
27 26 25 24 24 24 23 23 23 23 23 22 21 20 19 19 19 19 18 16 15 15 14 14 13 13 13 12 12 11 10 9 8 5 4 1 -2 -3 -4 -6 -7 -7 -8 -9
27 26 26 25 25 24 23 23 22 22 23 22 20 18 19 18 17 17 16 14 14 14 13 13 12 11 10 9 8 6 5 3 1 0 -2 -4 -5 -6 -7 -8 -8 -10 -11 -11
Wind_Speed
12 11 9 12 14 14 12 17 17 40 25 24 17 22 25 22 19 16 15 19 23 23 23 21 20 16 15 14 16 14 13 14 12 13 11 10 8 9 8 9 10 11 13 13
11 11 14 21 19 19 25 26 24 29 37 23 26 20 21 26 25 22 18 18 20 21 23 23 22 19 17 16 15 13 14 15 14 14 12 11 10 10 9 10 11 10 10 9
10 5 7 20 20 29 16 14 16 22 26 20 22 20 19 22 17 19 15 19 22 25 25 22 22 20 19 18 15 15 15 15 15 14 12 11 10 10 9 10 9 10 9 9
9 4 15 9 4 9 14 18 17 21 25 25 22 15 11 10 9 11 16 18 19 20 20 20 18 17 16 16 17 16 15 16 15 14 13 12 11 11 10 9 9 8 9 9
11 14 19 17 16 5 9 16 17 23 23 18 5 2 8 2 3 8 14 16 17 18 19 18 20 19 19 17 17 17 17 17 15 15 15 13 13 12 9 9 8 8 8 9
7 9 7 7 3 4 1 19 7 5 9 6 5 4 5 1 3 8 12 15 17 17 18 19 18 20 20 19 18 18 17 17 16 15 15 14 14 12 9 7 7 6 7 8
17 13 9 9 14 6 5 8 16 5 2 5 5 5 1 5 5 9 12 16 17 17 19 18 20 21 20 19 19 16 16 16 15 14 15 14 14 10 9 9 9 8 7 6
7 7 11 4 8 5 4 13 13 13 6 6 7 4 5 6 11 13 16 17 16 18 17 17 19 20 20 20 15 17 17 16 15 14 11 13 15 12 11 12 10 8 6 5
11 6 13 7 12 18 14 15 18 16 11 6 8 8 10 10 12 13 15 16 15 19 19 16 17 19 19 16 18 18 17 16 15 14 13 14 15 15 12 11 9 7 4 4
4 11 26 23 20 15 15 18 17 17 17 9 10 10 10 13 13 14 15 17 16 19 19 17 16 16 17 19 17 18 16 16 16 16 14 12 10 11 12 12 11 7 8 8
8 17 17 18 15 13 17 11 15 9 8 9 9 11 12 13 13 14 16 14 17 18 18 18 16 16 17 18 18 17 15 15 14 14 13 12 10 11 12 10 12 12 11 12
19 18 15 11 11 5 11 13 11 7 5 7 11 13 12 14 15 16 17 15 16 16 17 17 17 17 16 17 18 17 15 14 14 14 13 12 11 7 4 7 9 9 12 14
25 12 15 18 15 6 11 11 10 12 10 10 9 13 14 12 15 16 16 17 18 19 17 18 17 17 16 17 17 17 16 15 14 14 14 14 12 12 12 6 8 10 12 12
18 13 16 16 18 13 16 14 7 7 9 11 12 12 13 14 14 17 18 17 16 17 17 18 17 18 18 17 17 16 15 17 16 16 15 15 15 15 14 15 14 11 8 11
24 17 22 17 18 23 12 4 7 10 11 12 13 15 15 16 18 18 14 15 15 16 15 16 17 17 17 17 18 18 16 17 17 16 16 15 14 14 14 14 13 8 6 6
14 11 12 12 17 16 11 8 10 11 11 11 14 15 15 15 16 15 15 17 18 18 17 18 18 17 17 17 16 14 14 15 16 15 14 13 13 14 13 13 12 11 10 9
20 20 14 15 12 7 8 7 10 10 11 14 15 13 14 13 13 14 15 14 13 16 18 19 18 16 17 18 18 15 14 12 13 13 14 14 14 14 13 13 13 12 12 7
20 18 16 12 8 13 12 9 9 5 11 12 13 14 16 17 17 16 15 13 11 9 8 9 14 15 15 15 14 13 13 12 12 12 12 12 12 12 11 11 11 11 8 5
7 14 9 12 19 14 11 15 13 10 10 15 16 16 15 13 15 16 16 16 15 14 9 10 14 15 15 14 14 13 13 13 12 11 11 10 9 9 10 11 10 9 9 8
4 4 5 4 5 11 14 9 10 11 10 13 14 14 13 13 16 17 14 14 8 6 14 14 15 15 14 12 13 12 13 13 13 11 11 11 10 10 8 7 7 8 9 9
7 6 7 7 8 8 9 12 15 13 11 13 17 16 16 13 13 15 16 13 3 11 14 15 14 13 11 11 11 11 12 13 12 12 11 10 9 7 7 7 8 9 10 9
5 8 12 13 15 14 10 10 12 13 13 11 12 15 17 15 13 10 5 10 10 13 13 12 11 12 12 11 9 11 11 12 10 9 9 10 10 9 9 9 10 9 9 9
8 9 10 12 14 14 12 11 10 12 13 12 14 15 14 13 12 14 12 7 13 13 12 11 12 12 12 10 10 11 12 12 12 11 10 9 9 10 10 10 10 10 10 9
7 8 9 10 13 12 13 8 11 11 11 11 12 13 16 16 8 5 10 13 15 14 13 13 12 12 11 10 11 12 12 12 11 11 10 10 11 11 10 10 8 7 8 9
7 8 9 12 11 10 12 12 14 13 14 13 10 8 9 6 5 8 12 13 15 14 14 12 13 13 12 12 12 12 12 11 10 11 11 11 10 9 9 9 9 10 9 9
7 8 8 6 10 12 12 11 13 11 13 12 9 9 9 9 13 13 12 13 13 14 13 11 12 12 12 12 12 12 11 11 11 11 10 10 10 10 10 9 9 9 10 10
5 8 10 8 7 10 11 12 14 12 10 11 11 8 10 12 13 14 14 13 13 13 12 11 11 12 12 12 13 12 12 11 11 11 10 11 10 10 9 8 8 9 9 9
Wind_Direction
259 251 230 241 244 246 232 240 237 269 251 272 258 260 266 267 265 254 224 198 190 182 174 173 174 174 170 172 174 172 158 149 141 133 131 134 115 93 82 68 55 49 50 47
270 260 252 259 249 251 248 250 248 260 271 266 267 256 263 264 266 259 233 201 183 176 174 178 177 177 173 166 163 157 155 150 140 133 128 123 113 100 87 74 61 52 48 46
278 228 280 278 238 238 243 238 238 255 261 268 268 259 259 266 262 253 218 185 181 182 180 175 178 174 175 167 156 154 147 147 144 139 131 124 120 108 95 82 71 58 48 44
270 245 264 263 233 240 246 252 237 253 265 261 260 269 259 255 255 216 187 179 180 178 172 171 168 167 158 156 160 159 153 151 145 141 134 131 122 112 104 93 80 71 55 46
247 251 281 295 281 221 203 279 253 245 262 268 241 265 284 274 230 208 182 171 171 167 160 157 160 157 156 157 157 158 158 156 154 148 143 142 133 128 122 109 92 77 59 45
222 247 253 252 312 347 290 294 316 276 294 208 144 275 291 351 129 142 148 152 153 148 148 152 155 152 154 158 158 162 161 159 155 149 151 152 146 141 134 120 100 90 76 44
229 241 268 255 320 282 232 279 323 316 327 174 204 219 252 142 118 134 139 142 139 143 153 155 151 150 154 158 168 162 150 148 148 153 155 154 148 145 137 116 106 98 88 49
198 228 263 199 342 231 261 320 320 318 287 237 206 152 153 147 143 141 137 136 138 140 145 149 150 152 158 170 158 149 148 147 151 152 147 152 153 147 139 138 131 119 103 78
204 216 280 275 249 258 277 277 288 300 302 249 208 197 170 158 152 148 146 145 141 141 142 147 152 157 161 160 151 148 147 152 153 151 147 153 157 160 157 162 160 155 152 134
173 255 249 265 275 275 277 262 265 281 284 227 215 185 164 151 151 149 149 149 144 142 148 153 157 160 157 155 152 150 155 157 155 156 160 165 167 170 173 182 186 200 180 176
242 273 279 270 267 260 264 278 258 254 260 228 186 176 163 159 158 153 152 149 151 154 157 160 156 156 155 154 152 156 156 157 159 161 166 168 173 179 189 193 187 196 197 181
255 255 248 259 271 262 267 272 269 241 228 193 177 173 167 163 159 155 156 153 154 156 156 160 161 161 159 157 159 158 160 163 166 166 169 170 168 151 165 183 195 193 174 175
248 258 242 256 280 285 309 290 253 224 198 192 172 168 165 161 162 157 157 159 164 168 165 163 165 167 167 164 164 167 168 168 170 169 175 176 173 168 164 160 174 177 178 186
247 260 272 254 259 283 307 298 267 220 186 179 165 159 160 155 154 162 172 174 164 165 167 168 170 178 173 166 170 173 173 171 175 181 181 182 185 187 179 179 187 197 213 205
260 240 253 262 278 282 275 235 205 190 169 162 161 161 161 165 169 179 171 163 163 167 171 173 180 186 171 168 177 180 179 183 185 187 190 190 187 188 193 196 204 205 211 226
261 257 252 252 272 280 255 221 206 184 174 165 165 168 172 174 170 168 162 159 163 185 187 184 191 186 173 173 180 183 187 187 187 190 187 188 189 194 198 205 212 217 220 228
256 258 264 264 279 252 202 169 179 173 175 173 174 158 152 153 154 165 174 179 187 187 186 184 190 173 174 174 178 186 187 184 190 188 192 193 192 196 199 202 212 218 231 224
234 250 250 254 196 146 120 105 104 168 187 178 158 155 156 165 176 174 168 156 145 143 161 170 165 160 163 167 167 167 170 175 175 178 172 173 183 188 195 201 209 218 214 177
245 250 243 172 166 165 160 186 199 195 165 159 160 171 173 172 161 155 151 155 160 163 169 151 150 154 159 157 153 154 161 161 159 158 165 169 179 191 199 209 214 202 186 168
54 88 119 146 156 171 176 180 159 146 146 141 136 140 145 144 146 146 149 152 152 149 148 148 146 152 152 149 150 153 159 163 166 166 169 177 184 188 183 183 184 178 169 159
63 75 94 113 109 104 129 142 144 142 140 146 152 155 150 141 142 143 143 147 121 139 143 145 148 148 147 150 150 153 160 162 166 173 178 177 164 169 172 165 158 158 154 147
85 106 105 111 111 100 89 112 125 129 133 129 122 131 135 137 135 114 80 152 146 143 141 143 143 146 148 142 148 161 166 169 169 161 157 159 166 168 162 153 149 148 151 154
114 113 115 118 115 111 97 98 114 128 134 142 147 149 147 150 145 145 145 140 142 145 142 142 142 143 145 144 148 155 153 152 151 150 155 159 159 155 153 153 153 151 151 155
131 124 119 118 119 116 114 99 104 104 110 112 123 135 140 140 108 73 110 137 142 142 140 140 140 142 139 134 132 134 134 135 135 134 129 129 137 140 144 149 153 150 149 151
150 134 138 137 132 128 127 123 112 111 108 107 110 114 124 111 136 139 128 130 134 132 134 136 133 129 127 127 127 127 127 127 130 131 134 135 139 142 146 149 155 160 162 165
165 163 160 151 151 147 142 138 132 131 125 119 104 106 102 96 110 117 118 123 125 127 129 126 124 122 123 123 122 120 121 124 126 126 130 136 140 145 147 149 155 165 168 167
156 153 142 124 135 148 151 148 146 149 137 138 129 124 117 115 116 118 119 121 122 122 118 116 116 118 118 116 113 113 114 116 120 127 132 137 141 147 152 159 162 163 164 169